Location: Kimberly
(42.5380°N, 114.3640°W)
Time: 08:10:38
(UTC-06:00)

Hubble Space Telescope - Visible Passes

Search period start: 22 April 2019 00:00
Search period end: 02 May 2019 00:00
Orbit: 537 x 540 km, 28.5° (Epoch: 21 April)

Date Brightness Start Highest point End Pass type
(mag) Time Alt. Az. Time Alt. Az. Time Alt. Az.
28 Apr 3.0 06:01:55 10° SSW 06:03:17 11° S 06:04:39 10° SSE visible
29 Apr 3.0 05:51:23 10° SSW 05:52:38 11° S 05:53:52 10° SSE visible
30 Apr 3.0 05:41:02 10° SSW 05:41:59 11° S 05:42:54 10° S visible
